This is the latest recevied weather packets stored in our database for station/object EB5AGF-13. If no packets are shown the sender has not sent any weather packets the latest 10 day(s).
| Time | Temp. | Humidity | Pressure | Rain* | Wind** | Luminosity | Snow |
|---|---|---|---|---|---|---|---|
| 1778076359 | 22.22° C | 56% | 1007.2 hPa | 0 mm | 1.79 m/s, 57° | 292 W/m² | - |
| 1778076055 | 22.78° C | 56% | 1007.3 hPa | 0 mm | 4.02 m/s, 76° | 410 W/m² | - |
| 1778075751 | 22.78° C | 59% | 1007.3 hPa | 0 mm | 2.24 m/s, 67° | 562 W/m² | - |
| 1778075446 | 22.78° C | 53% | 1007.3 hPa | 0 mm | 1.34 m/s, 145° | 405 W/m² | - |
| 1778075142 | 22.22° C | 58% | 1007.4 hPa | 0 mm | 1.79 m/s, 65° | 576 W/m² | - |
| 1778074840 | 22.22° C | 58% | 1007.5 hPa | 0 mm | 2.24 m/s, 78° | 541 W/m² | - |
| 1778074534 | 22.78° C | 53% | 1007.3 hPa | 0 mm | 2.24 m/s, 53° | 597 W/m² | - |
| 1778074231 | 22.22° C | 56% | 1007.6 hPa | 0 mm | 1.34 m/s, 86° | 603 W/m² | - |
| 1778073927 | 22.78° C | 49% | 1007.5 hPa | 0 mm | 1.79 m/s, 57° | 523 W/m² | - |
| 1778073622 | 22.78° C | 51% | 1007.5 hPa | 0 mm | 2.24 m/s, 322° | 375 W/m² | - |
| 1778073318 | 22.78° C | 53% | 1007.6 hPa | 0 mm | 2.68 m/s, 184° | 601 W/m² | - |
| 1778073015 | 22.78° C | 54% | 1007.6 hPa | 0 mm | 1.34 m/s, 44° | 583 W/m² | - |
| 1778072710 | 22.22° C | 58% | 1007.7 hPa | 0 mm | 1.34 m/s, 47° | 658 W/m² | - |
| 1778072406 | 22.22° C | 62% | 1007.7 hPa | 0 mm | 2.68 m/s, 41° | 672 W/m² | - |
| 1778072103 | 22.22° C | 62% | 1007.7 hPa | 0 mm | 2.24 m/s, 31° | 680 W/m² | - |
| 1778071800 | 22.22° C | 64% | 1007.8 hPa | 0 mm | 3.13 m/s, 68° | 689 W/m² | - |
| 1778071495 | 22.22° C | 65% | 1007.7 hPa | 0 mm | 1.79 m/s, 241° | 681 W/m² | - |
| 1778071190 | 22.22° C | 61% | 1007.9 hPa | 0 mm | 1.79 m/s, 44° | 685 W/m² | - |
| 1778070886 | 22.22° C | 60% | 1007.7 hPa | 0 mm | 1.79 m/s, 69° | 668 W/m² | - |
| 1778070583 | 22.22° C | 65% | 1007.7 hPa | 0 mm | 2.68 m/s, 34° | 695 W/m² | - |
| 1778070280 | 22.22° C | 63% | 1007.7 hPa | 0 mm | 1.79 m/s, 76° | 680 W/m² | - |
| 1778069973 | 21.67° C | 66% | 1008 hPa | 0 mm | 1.34 m/s, 18° | 755 W/m² | - |
| 1778069670 | 22.22° C | 66% | 1008.1 hPa | 0 mm | 1.79 m/s, 42° | 772 W/m² | - |
| 1778069367 | 22.22° C | 64% | 1008.2 hPa | 0 mm | 1.79 m/s, 46° | 743 W/m² | - |
| 1778069065 | 22.22° C | 66% | 1008.1 hPa | 0 mm | 2.24 m/s, 35° | 168 W/m² | - |
* Rain latest hour (hover to see other rain measurements)
** Current wind speed in m/s (hover to see current wind gust speed)